METEOR 2-5 DEB, 38276

Orbit data source: Space-Track

METEOR 2-5 DEB, 38276 is space debris in LEO originally from a launch on Wed, 31 Oct 1979 UTC launched from the Plesetsk Missile And Space Complex (PKMTR). Debris objects in space refer to the collection of defunct objects orbiting the Earth. Examples of debris include non-operational satellites, rocket bodies, and fragments generated from explosions, collisions, or faulty payload assembly.

Loading next visibility...
Identifier
38276, 1979-095BW
Orbit
LEO
Country
Flag of CISCIS
Related business
Manufacturer
Unknown
Mission
Spacecraft
Bus & Motor
Unknown
Mass
Unknown
Launch date (UTC)
1979-10-31 (46 years ago)
Launch vehicle
Unknown
Launch site
Plesetsk Missile And Space Complex (PKMTR)
Object type
Payload
Rocket body
Debris
Shape & HBR
Unknown shape, 0.1 m
Radar Cross Section
Small (<0.1 m²)

Expand to show TLE details & history
Last TLE update: 23 hours ago

TLE from 23 hours ago
0 METEOR 2-5 DEB
1 38276U 79095BW  25354.62570779  .00003947  00000-0  12578-2 0  9996
2 38276  81.1851 312.7144 0019067 185.7365 297.2873 14.39565156725593
Epoch: 2025-12-20T15:01Z
TLE epoch observation values (Epoch: 2025-12-20T15:01:01.153Z)
Latitude
56.23712°
Longitude
164.66944°
Altitude
763.069 km
Speed
7.481 km/s
True Right ascension
07h 57m 29s
True Declination
56° 04' 41"
Sunlit
Object was in full shadow at epoch
Visualization orbit readout
Latitude
Unknown
Longitude
Unknown
Altitude
Unknown
Speed
Unknown
Apparent Right ascension
Unknown
Apparent Declination
Unknown
Sunlit
N/A
Visualization observer readout
Local Sidereal Time
13:23:05
Azimuth
Unknown
Elevation
Unknown
Doppler factor
Unknown
Orbital elements
Apogee altitude
770.678 km
Perigee altitude
743.468 km
Semi-major axis
7,135.21 km
Eccentricity
0.00191
Inclination
81.1851°
RAAN
312.7144°
Arg. of periapsis
185.7365°
True anomaly
297.09291°
Mean anomaly
297.2873°
Eccentric anomaly
297.19013°
Mean motion
3.60108 °/min
Orbital period
99.97 mins
BSTAR
0.0012578
Loading maneuver chart data...
Computing Atmospheric mass density...

Documentation

Showing up to 5 results
|